GW1897 Weather Reports


time (UTC)temp
F
wind
direction
speed
knots
gust
knots
rain 1hr
in
rain 24hr
in
rain mn
in
humidity
%
barometer
mb
20260510201952 74 277 0.9 6.1 0.00 0.16 0.00 54 1012.3
20260510201445 74 306 0.0 3.5 0.00 0.16 0.00 56 1012.2
20260510200941 74 259 0.0 3.5 0.00 0.16 0.00 55 1012.3
20260510200434 75 310 1.7 9.6 0.00 0.16 0.00 54 1012.3
20260510195928 74 238 2.6 9.6 0.00 0.16 0.00 53 1012.2
20260510195421 75 259 1.7 7.8 0.00 0.16 0.00 54 1012.3
20260510194915 75 225 2.6 7.8 0.00 0.16 0.00 53 1012.4
20260510194640 75 219 1.7 5.2 0.00 0.16 0.00 54 1012.4
20260510193903 76 231 0.9 6.1 0.00 0.16 0.00 53 1012.5
20260510193358 76 240 1.7 6.1 0.00 0.16 0.00 54 1012.5
20260510193123 76 224 0.9 7.8 0.00 0.16 0.00 54 1012.3
20260510192345 76 269 0.9 7.8 0.00 0.16 0.00 52 1012.5
20260510191839 76 304 1.7 7.0 0.00 0.16 0.00 52 1012.4
20260510191334 76 177 1.7 7.0 0.00 0.16 0.00 52 1012.4
20260510190829 76 229 1.7 7.0 0.00 0.16 0.00 53 1012.5
20260510190322 75 206 1.7 7.0 0.00 0.16 0.00 56 1012.5
20260510185817 75 242 1.7 6.1 0.00 0.16 0.00 55 1012.6
20260510185310 75 251 1.7 6.1 0.00 0.16 0.00 55 1012.6
20260510185035 75 265 0.9 6.1 0.00 0.16 0.00 56 1012.6
20260510184259 74 323 1.7 6.1 0.00 0.16 0.00 58 1012.6
20260510183752 75 263 2.6 8.7 0.00 0.16 0.00 56 1012.6
20260510183247 76 250 4.3 11.3 0.00 0.16 0.00 52 1012.6
20260510182739 76 206 5.2 14.8 0.00 0.16 0.00 51 1012.5
20260510182233 76 271 5.2 14.8 0.00 0.16 0.00 50 1012.5
20260510181728 76 214 3.5 13.9 0.00 0.16 0.00 50 1012.4
20260510181221 76 244 4.3 13.9 0.00 0.16 0.00 50 1012.6
20260510180715 76 272 4.3 11.3 0.00 0.16 0.00 51 1012.4
20260510180209 76 215 3.5 11.3 0.00 0.16 0.00 50 1012.4
20260510175704 76 252 2.6 10.4 0.00 0.16 0.00 52 1012.4
20260510175157 76 246 2.6 10.4 0.00 0.16 0.00 52 1012.2
20260510174651 76 219 2.6 9.6 0.00 0.16 0.00 53 1012.5
20260510174146 76 234 1.7 7.0 0.00 0.16 0.00 56 1012.5
20260510173639 77 211 0.9 7.0 0.00 0.16 0.00 52 1012.5
20260510173136 77 261 0.9 7.0 0.00 0.16 0.00 55 1012.4
20260510172907 76 177 0.9 7.0 0.00 0.16 0.00 56 1012.5
20260510172135 76 188 1.7 6.1 0.00 0.16 0.00 57 1012.4
20260510171636 76 147 1.7 6.1 0.00 0.16 0.00 59 1012.6
20260510171135 75 240 0.9 5.2 0.00 0.16 0.00 60 1012.5
20260510170637 75 186 0.9 4.3 0.00 0.16 0.00 63 1012.5
20260510170407 74 190 0.9 4.3 0.00 0.16 0.00 63 1012.5
20260510165635 74 193 0.9 6.1 0.00 0.16 0.00 63 1012.4
20260510165136 74 175 0.9 7.8 0.00 0.16 0.00 65 1012.6
20260510164632 73 172 1.7 7.8 0.00 0.16 0.00 63 1012.6
20260510164133 73 260 1.7 7.8 0.00 0.16 0.00 66 1012.6
20260510163630 73 198 2.6 7.8 0.00 0.16 0.00 66 1012.7
20260510163130 73 227 0.9 7.0 0.00 0.16 0.00 65 1012.6
20260510162631 73 188 0.0 2.6 0.00 0.16 0.00 68 1012.5
20260510162129 72 163 0.0 2.6 0.00 0.16 0.00 74 1012.6
20260510161630 71 134 0.0 2.6 0.00 0.16 0.00 72 1012.6
20260510161125 71 117 0.0 1.7 0.00 0.16 0.00 75 1012.6
20260510160858 70 240 0.0 1.7 0.00 0.16 0.00 76 1012.6
20260510160126 69 165 0.0 1.7 0.00 0.16 0.00 78 1012.6
20260510155625 69 76 0.0 3.5 0.00 0.16 0.00 76 1012.8
20260510155355 68 190 0.0 3.5 0.00 0.16 0.00 81 1012.9
20260510154856 67 0 0.0 1.7 0.00 0.16 0.00 81 1013.0
20260510154125 66 330 0.0 0.0 0.00 0.16 0.00 85 1013.0
20260510153625 65 316 0.0 0.0 0.00 0.16 0.00 87 1013.0
20260510153125 64 194 0.0 0.0 0.00 0.16 0.00 91 1013.0
20260510152624 63 273 0.0 0.0 0.00 0.16 0.00 92 1013.0
20260510152125 62 279 0.0 0.0 0.00 0.16 0.00 94 1013.0
20260510151624 60 346 0.0 0.0 0.00 0.16 0.00 95 1013.2
20260510151126 59 184 0.0 0.0 0.00 0.16 0.00 95 1013.2
20260510150855 59 40 0.0 2.6 0.00 0.16 0.00 96 1013.2
20260510150741 58 220 0.0 2.6 0.00 0.16 0.00 96 1013.3
20260510145624 58 202 0.0 2.6 0.00 0.16 0.00 97 1013.2
20260510145124 57 325 0.0 1.7 0.00 0.16 0.00 96 1013.2
20260510144625 56 7 0.0 1.7 0.00 0.16 0.00 96 1013.3
20260510144118 56 263 0.0 3.5 0.00 0.16 0.00 96 1013.2
20260510143612 56 235 0.0 3.5 0.00 0.16 0.00 96 1013.2
20260510143107 56 194 0.0 0.0 0.00 0.16 0.00 97 1013.2
20260510142607 55 121 0.0 0.0 0.00 0.16 0.00 97 1013.3
20260510142105 55 182 0.0 2.6 0.00 0.16 0.00 97 1013.4
20260510141610 55 233 0.9 2.6 0.00 0.16 0.00 97 1013.1
20260510141605 55 215 0.9 2.6 0.00 0.16 0.00 97 1013.1
20260510140602 54 140 0.9 2.6 0.00 0.16 0.00 97 1013.1
20260510140101 54 207 0.9 2.6 0.00 0.16 0.00 97 1013.1
20260510135558 54 238 0.0 2.6 0.00 0.16 0.00 97 1013.2
20260510135057 53 210 0.0 2.6 0.00 0.16 0.00 97 1013.1
20260510134556 53 244 0.0 0.9 0.00 0.16 0.00 97 1013.0
20260510134329 53 244 0.0 0.9 0.00 0.16 0.00 97 1012.9
20260510133826 53 290 0.0 2.6 0.00 0.16 0.00 97 1012.9
20260510133053 53 191 0.0 2.6 0.00 0.16 0.00 97 1012.9
20260510132552 53 206 0.0 2.6 0.00 0.16 0.00 97 1013.0
20260510132323 53 209 0.9 2.6 0.00 0.16 0.00 97 1013.1
20260510131552 52 239 0.9 3.5 0.00 0.16 0.00 97 1013.1
20260510131053 52 223 0.9 3.5 0.00 0.16 0.00 97 1013.2
20260510130552 52 204 0.0 0.0 0.00 0.16 0.00 97 1013.1
20260510130051 52 204 0.0 0.0 0.00 0.16 0.00 97 1013.0
20260510125552 51 231 0.0 0.0 0.00 0.16 0.00 97 1013.0
20260510125044 51 348 0.0 0.0 0.00 0.16 0.00 97 1012.9
20260510124538 51 349 0.0 0.0 0.00 0.16 0.00 97 1012.7
20260510124033 51 358 0.0 0.0 0.00 0.16 0.00 97 1012.7
20260510123527 51 359 0.0 0.0 0.00 0.16 0.00 97 1012.7
20260510123252 51 359 0.0 0.0 0.00 0.16 0.00 97 1012.7
20260510122515 51 359 0.0 0.0 0.00 0.16 0.00 97 1012.6
20260510122010 51 358 0.0 0.0 0.00 0.16 0.00 97 1012.5
20260510121503 51 101 0.0 0.0 0.00 0.16 0.00 97 1012.4
20260510120957 50 53 0.0 0.0 0.00 0.16 0.00 97 1012.7
20260510120451 50 53 0.0 0.0 0.00 0.16 0.00 97 1012.5
20260510115945 50 53 0.0 0.0 0.00 0.16 0.00 97 1012.4
20260510115445 50 50 0.0 0.0 0.00 0.16 0.00 97 1012.5
20260510114942 50 50 0.0 0.0 0.00 0.16 0.00 97 1012.4
20260510114441 50 26 0.0 0.0 0.00 0.16 0.00 97 1012.2
20260510113938 50 26 0.0 0.0 0.00 0.16 0.00 97 1012.2
20260510113436 50 26 0.0 0.0 0.00 0.16 0.00 97 1012.2
20260510112938 50 26 0.0 0.0 0.00 0.16 0.00 97 1012.3
20260510112435 49 26 0.0 0.0 0.00 0.16 0.00 97 1012.3
20260510111936 49 26 0.0 0.0 0.00 0.16 0.00 97 1012.1
20260510111434 49 26 0.0 0.0 0.00 0.16 0.00 96 1012.2
20260510110934 49 26 0.0 0.0 0.00 0.16 0.00 96 1012.2
20260510110434 49 26 0.0 0.0 0.00 0.16 0.00 96 1012.0
20260510110205 49 26 0.0 0.0 0.00 0.16 0.00 96 1012.0
20260510105432 49 26 0.0 0.0 0.00 0.16 0.00 96 1011.9
20260510105202 49 26 0.0 0.0 0.00 0.16 0.00 96 1011.8
20260510104430 49 26 0.0 0.0 0.00 0.16 0.00 96 1011.7
20260510103929 49 26 0.0 0.0 0.00 0.16 0.00 96 1011.6
20260510103659 49 26 0.0 0.0 0.00 0.16 0.00 96 1011.7
20260510102926 48 26 0.0 0.0 0.00 0.16 0.00 96 1011.7
20260510102658 48 26 0.0 0.0 0.00 0.16 0.00 96 1011.7
20260510102158 48 26 0.0 0.0 0.00 0.16 0.00 96 1011.5
20260510101419 48 26 0.0 0.0 0.00 0.16 0.00 96 1011.6
20260510100913 48 26 0.0 0.0 0.00 0.16 0.00 96 1011.4
20260510100406 48 26 0.0 0.0 0.00 0.16 0.00 96 1011.4
20260510095901 48 26 0.0 0.0 0.00 0.16 0.00 96 1011.6
20260510095354 48 26 0.0 0.0 0.00 0.16 0.00 96 1011.5
20260510094849 47 26 0.0 0.0 0.00 0.16 0.00 96 1011.4
20260510094349 47 26 0.0 0.0 0.00 0.16 0.00 96 1011.5
20260510093849 47 26 0.0 0.0 0.00 0.16 0.00 96 1011.5
20260510093352 47 26 0.0 0.0 0.00 0.16 0.00 96 1011.5
20260510093348 47 26 0.0 0.0 0.00 0.16 0.00 96 1011.5
20260510092350 47 26 0.0 0.0 0.00 0.16 0.00 96 1011.5
20260510091845 46 26 0.0 0.0 0.00 0.16 0.00 95 1011.4
20260510091347 46 26 0.0 0.0 0.00 0.16 0.00 95 1011.6
20260510090846 46 26 0.0 0.0 0.00 0.16 0.00 95 1011.4
20260510090343 46 26 0.0 0.0 0.00 0.16 0.00 95 1011.3
20260510085844 46 26 0.0 0.0 0.00 0.16 0.00 95 1011.4
20260510085343 46 26 0.0 0.0 0.00 0.16 0.00 95 1011.3
20260510084846 46 337 0.0 0.0 0.00 0.16 0.00 95 1011.5
20260510084614 46 9 0.0 0.0 0.00 0.16 0.00 95 1011.4
20260510083840 46 9 0.0 0.0 0.00 0.16 0.00 95 1011.2
20260510083339 46 9 0.0 0.0 0.00 0.16 0.00 95 1011.3
20260510082836 46 9 0.0 0.0 0.00 0.16 0.00 95 1010.8
20260510082338 46 9 0.0 0.0 0.00 0.16 0.00 95 1011.0
20260510081833 46 9 0.0 0.0 0.00 0.16 0.00 95 1011.0
20260510081332 46 9 0.0 0.0 0.00 0.16 0.00 95 1010.9
20260510080833 46 9 0.0 0.0 0.00 0.16 0.00 95 1010.8
20260510080604 46 9 0.0 0.0 0.00 0.16 0.00 95 1010.8
20260510075834 46 9 0.0 0.0 0.00 0.16 0.00 95 1010.8
20260510075331 46 9 0.0 0.0 0.00 0.16 0.00 95 1010.9
20260510074832 46 9 0.0 0.0 0.00 0.16 0.00 94 1010.8
20260510074332 46 9 0.0 0.0 0.00 0.16 0.00 94 1010.8
20260510073832 46 9 0.0 0.0 0.00 0.16 0.00 94 1010.7
20260510073331 46 9 0.0 0.0 0.00 0.16 0.00 94 1010.7
20260510072833 46 9 0.0 0.0 0.00 0.16 0.00 94 1010.7
20260510072331 46 9 0.0 0.0 0.00 0.16 0.00 94 1010.6
20260510072103 46 9 0.0 0.0 0.00 0.16 0.00 94 1010.7
20260510071332 46 9 0.0 0.0 0.00 0.16 0.00 94 1010.6
20260510070834 46 9 0.0 0.0 0.00 0.16 0.00 94 1010.5
20260510070333 46 9 0.0 0.0 0.00 0.16 0.00 94 1010.5
20260510065834 46 9 0.0 0.0 0.00 0.16 0.00 94 1010.5
20260510065331 46 9 0.0 0.0 0.00 0.16 0.00 94 1010.5
20260510065055 46 9 0.0 0.0 0.00 0.16 0.00 94 1010.1
20260510064549 46 9 0.0 0.0 0.00 0.16 0.00 94 1010.1
20260510063812 47 9 0.0 0.0 0.00 0.16 0.00 94 1010.0
20260510063306 47 9 0.0 0.0 0.00 0.16 0.00 94 1010.0
20260510063301 47 9 0.0 0.0 0.00 0.16 0.00 94 1010.0
20260510062254 47 9 0.0 0.0 0.00 0.16 0.00 94 1010.3
20260510061747 47 9 0.0 0.0 0.00 0.16 0.00 94 1010.3
20260510061242 47 9 0.0 0.0 0.00 0.16 0.00 94 1010.3
20260510060230 47 9 0.0 0.0 0.00 0.16 0.00 94 1010.4
20260510055723 47 9 0.0 0.0 0.00 0.16 0.00 94 1010.5
20260510055219 47 9 0.0 0.0 0.00 0.16 0.00 94 1010.5
20260510054713 47 9 0.0 0.0 0.00 0.16 0.00 94 1010.6
20260510054205 47 9 0.0 0.0 0.00 0.16 0.00 94 1010.5
20260510053701 47 9 0.0 0.0 0.00 0.16 0.00 93 1010.5
20260510053154 47 9 0.0 0.0 0.00 0.16 0.00 93 1010.6
20260510052649 47 9 0.0 0.0 0.00 0.16 0.00 93 1010.6
20260510052408 47 9 0.0 0.0 0.00 0.16 0.00 94 1010.6
20260510052242 47 9 0.0 0.0 0.00 0.16 0.00 94 1010.6
20260510051400 47 9 0.0 0.0 0.00 0.16 0.00 93 1010.6
20260510050622 47 9 0.0 0.0 0.00 0.16 0.00 93 1010.8
20260510050117 47 9 0.0 0.0 0.00 0.16 0.00 93 1010.8
20260510045610 47 9 0.0 0.0 0.00 0.16 0.00 93 1010.8
20260510045104 47 9 0.0 0.0 0.00 0.16 0.00 93 1010.8
20260510044559 47 9 0.0 0.0 0.00 0.16 0.00 93 1010.9
20260510044052 47 9 0.0 0.0 0.00 0.16 0.00 93 1010.9
20260510044047 47 9 0.0 0.0 0.00 0.16 0.00 93 1011.1
20260510043040 47 9 0.0 0.0 0.00 0.16 0.00 93 1010.9
20260510042533 47 9 0.0 0.0 0.00 0.16 0.00 93 1010.9
20260510042029 47 9 0.0 0.0 0.00 0.16 0.00 93 1011.0
20260510041522 47 9 0.0 0.0 0.00 0.16 0.00 93 1011.1
20260510041017 48 9 0.0 0.0 0.00 0.16 0.00 93 1011.0
20260510040511 48 9 0.0 0.0 0.00 0.16 0.00 93 1011.0
20260510040005 48 9 0.0 0.0 0.00 0.16 0.00 93 1011.0
20260510035459 48 9 0.0 0.0 0.00 0.16 0.16 93 1011.1
20260510034952 48 9 0.0 0.0 0.00 0.16 0.16 93 1010.9
20260510034446 48 9 0.0 0.0 0.00 0.16 0.16 93 1010.9
20260510033941 48 9 0.0 0.0 0.00 0.16 0.16 93 1010.9
20260510033434 48 9 0.0 0.0 0.00 0.16 0.16 93 1010.9
20260510032930 48 9 0.0 0.0 0.00 0.16 0.16 93 1010.8
20260510032423 48 9 0.0 0.0 0.00 0.16 0.16 93 1010.6
20260510031916 49 9 0.0 0.0 0.00 0.16 0.16 93 1010.6
20260510031410 49 9 0.0 0.0 0.00 0.16 0.16 93 1010.7
20260510030905 49 9 0.0 0.0 0.00 0.16 0.16 93 1010.7
20260510030359 49 9 0.0 0.0 0.00 0.16 0.16 93 1010.8
20260510025852 49 9 0.0 0.0 0.00 0.16 0.16 93 1010.7
20260510025617 49 9 0.0 0.0 0.00 0.16 0.16 93 1010.6
20260510024842 49 9 0.0 0.0 0.00 0.16 0.16 92 1010.6
20260510024336 49 9 0.0 0.0 0.00 0.16 0.16 92 1010.6
20260510023828 49 9 0.0 0.0 0.00 0.16 0.16 92 1010.6
20260510023324 49 9 0.0 0.0 0.00 0.16 0.16 92 1010.6
20260510022817 49 9 0.0 0.0 0.00 0.16 0.16 92 1010.7
20260510022543 50 9 0.0 0.0 0.00 0.16 0.16 92 1010.6
20260510021805 50 9 0.0 0.0 0.00 0.16 0.16 92 1010.5
20260510021259 50 9 0.0 0.0 0.00 0.16 0.16 92 1010.5
20260510020752 50 9 0.0 0.0 0.00 0.16 0.16 92 1010.6
20260510020250 50 9 0.0 0.0 0.00 0.16 0.16 92 1010.5
20260510015751 50 9 0.0 0.0 0.00 0.16 0.16 92 1010.6
20260510015249 50 9 0.0 0.0 0.00 0.16 0.16 91 1010.5
20260510014750 51 9 0.0 0.0 0.00 0.16 0.16 91 1010.5
20260510014247 51 9 0.0 0.0 0.00 0.16 0.16 91 1010.6
20260510013747 51 9 0.0 0.0 0.00 0.16 0.16 91 1010.6
20260510013250 51 9 0.0 0.0 0.00 0.16 0.16 91 1010.6
20260510013245 51 9 0.0 0.0 0.00 0.16 0.16 91 1010.6
20260510012515 51 9 0.0 0.0 0.00 0.16 0.16 91 1010.6
20260510011743 51 9 0.0 0.0 0.00 0.16 0.16 91 1010.7
20260510011243 51 9 0.0 0.0 0.00 0.16 0.16 91 1010.5
20260510010744 52 9 0.0 0.0 0.00 0.16 0.16 91 1010.4
20260510010243 52 9 0.0 0.0 0.00 0.16 0.16 91 1010.3
20260510005744 52 9 0.0 0.0 0.00 0.16 0.16 91 1010.3
20260510005245 52 9 0.0 0.0 0.00 0.16 0.16 91 1010.0
20260510004740 52 9 0.0 0.0 0.00 0.16 0.16 90 1010.1
20260510004512 53 9 0.0 0.0 0.00 0.16 0.16 91 1010.1
20260510003742 53 9 0.0 0.0 0.00 0.16 0.16 91 1010.0
20260510003240 53 9 0.0 0.0 0.00 0.16 0.16 91 1009.9
20260510002740 53 9 0.0 0.0 0.00 0.16 0.16 91 1009.9
20260510002241 53 9 0.0 0.0 0.00 0.16 0.16 91 1009.9
20260510001741 53 9 0.0 0.0 0.00 0.16 0.16 91 1010.0
20260510001511 54 9 0.0 0.0 0.00 0.16 0.16 91 1010.0
20260510000741 54 9 0.0 0.0 0.00 0.16 0.16 91 1009.8
20260510000241 54 9 0.0 0.0 0.00 0.16 0.16 91 1009.8
20260509235740 54 9 0.0 0.0 0.00 0.16 0.16 91 1009.9
20260509235239 54 9 0.0 0.0 0.00 0.16 0.16 92 1010.0
20260509234741 54 9 0.0 0.0 0.00 0.16 0.16 92 1009.9
20260509234240 54 9 0.0 0.0 0.00 0.16 0.16 92 1009.9
20260509233740 54 9 0.0 0.0 0.00 0.16 0.16 92 1009.9
20260509233240 55 9 0.0 0.0 0.00 0.16 0.16 92 1010.0
20260509232740 55 9 0.0 0.0 0.00 0.16 0.16 92 1009.9
20260509232509 55 9 0.0 1.7 0.00 0.16 0.16 92 1009.9
20260509231732 55 9 0.0 1.7 0.00 0.16 0.16 92 1009.9
20260509231225 55 67 0.0 0.0 0.00 0.16 0.16 92 1009.9
20260509230722 55 69 0.0 0.0 0.00 0.16 0.16 92 1009.8
20260509230214 55 8 0.0 0.0 0.00 0.16 0.16 93 1009.8
20260509225707 55 8 0.0 0.0 0.00 0.16 0.16 92 1009.8
20260509225201 55 7 0.0 0.0 0.00 0.16 0.16 93 1009.7
20260509224656 55 12 0.0 0.0 0.00 0.16 0.16 92 1009.8
20260509224149 55 15 0.0 0.0 0.00 0.16 0.16 92 1009.8
20260509223644 54 26 0.0 0.0 0.00 0.16 0.16 92 1009.8
20260509223138 54 36 0.0 0.0 0.01 0.16 0.16 91 1009.7
20260509222903 54 36 0.0 0.0 0.01 0.16 0.16 91 1009.7
20260509222126 55 36 0.0 0.9 0.01 0.16 0.16 91 1009.7
20260509221621 55 57 0.0 0.9 0.04 0.16 0.16 91 1009.8
20260509221345 55 4 0.0 0.0 0.10 0.16 0.16 91 1009.9
20260509220608 55 4 0.0 0.0 0.12 0.16 0.16 90 1010.1
20260509215555 55 4 0.0 0.0 0.15 0.16 0.16 90 1010.0
20260509215051 55 4 0.0 0.0 0.16 0.16 0.16 89 1010.4
20260509214544 55 4 0.0 0.0 0.16 0.16 0.16 89 1010.4
20260509214037 55 4 0.0 0.0 0.16 0.16 0.16 88 1010.4
20260509213532 55 4 0.0 0.0 0.16 0.16 0.16 87 1010.6
20260509213025 56 4 0.0 0.0 0.15 0.15 0.15 86 1010.5
20260509212520 56 4 0.0 0.0 0.15 0.15 0.15 85 1010.5
20260509212014 56 4 0.0 0.0 0.14 0.14 0.14 85 1010.6
20260509211507 57 140 0.0 0.9 0.11 0.11 0.11 85 1010.5
20260509211003 57 196 0.0 0.9 0.06 0.06 0.06 83 1011.1
20260509210455 57 307 0.0 0.0 0.03 0.03 0.04 82 1010.1
20260509205949 57 307 0.0 0.0 0.01 0.01 0.01 81 1010.1
20260509205443 57 307 0.0 3.5 0.01 0.01 0.01 80 1010.3
20260509205209 57 278 0.0 3.5 0.00 0.00 0.00 80 1010.4
20260509204432 58 153 0.0 0.0 0.00 0.00 0.00 81 1010.0
20260509203926 58 108 0.0 0.9 0.00 0.00 0.00 80 1009.9
20260509203420 58 345 0.0 0.9 0.00 0.00 0.00 79 1009.8
20260509202913 58 356 0.0 1.7 0.00 0.00 0.00 79 1009.8
20260509202408 58 349 0.0 3.5 0.00 0.00 0.00 79 1009.9